Regional Weather Roundup
Issued by NWS

Home | Current Version | Previous Version | Graphics & Text | Print | Product List | Glossary On
Versions: 1 2 3 4 5 6 7 8 9 10 11 12 13 14 15 16 17 18 19 20 21 22 23 24 25 26 27 28 29 30 31 32 33 34 35 36 37 38 39 40 41 42 43 44 45 46 47 48 49 50
000
ASUS44 KMEG 231910
RWRTN
TENNESSEE HOURLY STATE WEATHER ROUNDUP
NATIONAL WEATHER SERVICE MEMPHIS TN
200 PM CDT SUN JUL 23 2017

TNZ002-004-019-021-049-052-054-088>092-232000-
WEST TENNESSEE

CITY           SKY/WX    TMP DP  RH WIND       PRES   REMARKS
MEMPHIS INTL   MOSUNNY   95  77  55 S9        29.86F HX 109
NWS MEMPHIS      N/A     95 N/A N/A MISG        N/A
JACKSON        SUNNY     94  75  54 VRB6      29.85F HX 105
SOMERVILLE       N/A     93  75  55 W5        29.86F HX 104
COVINGTON      SUNNY     91  79  66 SW7       29.84F HX 107
UNION CITY     SUNNY     90  75  62 CALM      29.85F HX 100
BOLIVAR        PTSUNNY   91  75  59 SW6       29.86F HX 102
PARIS          SUNNY     90  73  58 CALM      29.86R HX  98
HUNTINGDON     SUNNY     91  75  59 SW8       29.84F HX 102
SELMER         MOSUNNY   90  75  62 N9        29.88S HX 100
SAVANNAH       MOSUNNY   93  73  52 N5        29.86F HX 102
$$

TNZ008-025-027-028-033-062-065-066-232000-
NORTH MIDDLE TENNESSEE

CITY           SKY/WX    TMP DP  RH WIND       PRES   REMARKS
NASHVILLE      PTSUNNY   93  75  55 VRB5      29.88S HX 104
PORTLAND       MOSUNNY   90  75  62 VRB5G12   29.87S HX 100
CLARKSVILLE    MOSUNNY   90  74  59 W3        29.85F HX  99
SMYRNA         PTSUNNY   92  78  63 VRB6      29.88F HX 107
COOKEVILLE     MOSUNNY   90  75  62 SW6       29.90F HX 100
GALLATIN       SUNNY     91  75  59 VRB5G13   29.88F HX 102
CROSSVILLE     CLOUDY    81  74  79 S6        29.97F
$$

TNZ061-075-076-078-094-096-097-232000-
SOUTH MIDDLE TENNESSEE

CITY           SKY/WX    TMP DP  RH WIND       PRES   REMARKS
FAYETTEVILLE   MOSUNNY   90  73  58 W7        29.90F HX  98
TULLAHOMA      SUNNY     88  70  55 CALM      29.92F HX  92
WINCHESTER     MOSUNNY   84  75  74 W5        29.92F HX  92
MCMINNVILLE    MOSUNNY   90  75  62 W8        29.91F HX 100
COLUMBIA       MOSUNNY   91  75  59 SW8       29.87F HX 102
SHELBYVILLE    SUNNY     86  77  74 S8        29.90F HX  97
$$

TNZ017-018-042-046-047-232000-
NORTHEAST TENNESSEE

CITY           SKY/WX    TMP DP  RH WIND       PRES   REMARKS
TRI CITIES     CLOUDY    83  74  74 S5        29.93F
ELIZABETHTON   CLOUDY    84  72  65 W5        29.94F
$$

TNZ012-013-036-069-073-074-232000-
CENTRAL EAST TENNESSEE

CITY           SKY/WX    TMP DP  RH WIND       PRES   REMARKS
KNOXVILLE      CLOUDY    87  72  60 SW9       29.90F HX  93
OAK RIDGE      CLOUDY    88  72  58 VRB7      29.91F HX  94
DOWNTOWN KNOXV SUNNY     90  75  62 VRB6      29.88F HX 100
GATLINBURG     SUNNY     91  72  52 SW7       29.89F HX  98
MORRISTOWN     MOSUNNY   91  72  52 NW7G13    29.90F HX  98
JACKSBORO      MOSUNNY   90  73  58 SW7       29.92F HX  98
$$

TNZ083-085-099-232000-
SOUTHEAST TENNESSEE

CITY           SKY/WX    TMP DP  RH WIND       PRES   REMARKS
CHATTANOOGA    PTSUNNY   84  77  79 E6        29.92F HX  94
DAYTON         CLEAR     77  75  94 CALM      29.91F
$$

SKY/WX REPORTED AS FAIR MEANS FEW OR NO CLOUDS BELOW
12 THOUSAND FEET.





USA.gov is the U.S. government's official web portal to all federal, state and local government web resources and services.